ZHONGXING-9

Last updated on Wed Jul 09 2025 00:02:43 GMT+0000 (Coordinated Universal Time)

1 33051U 08028A 25189.51350906 -.00000232 00000+0 00000+0 0 9990 2 33051 0.0168 65.0112 0004332 55.2601 83.5045 1.00272798 62598
UTC large
Height (km)
Speed (km/s)
/
Latitude / Longitude
Inclination (degrees)
Orbital Period (minutes)
Azimuth
Elevation
Range (km)
Doppler Factor

Next 0 passes for location: London (51.5072 / 0.1276)

Sorry there are no passes over London.